SCP
0 0 0 0 0 0 0 0 0 0 0 0 0 0 0 0 0 0 0 0 0 0 0 0 0 0 0 0 1 1 1 1 1 0 0 0 0 0 0 0 0 0 0 0
0 0 0 0 0 0 0 0 0 0 0 0 0 0 0 0 0 0 0 0 0 0 0 1 0 0 0 0 1 1 1 0 0 0 0 0 0 0 0 0 0 0 0 0
0 0 0 0 0 0 0 0 0 0 0 0 0 0 0 0 0 0 0 0 0 0 0 0 0 0 0 0 0 0 0 0 0 0 0 0 0 0 0 0 0 0 0 0
0 0 0 0 0 0 0 0 0 0 0 0 0 0 0 0 0 0 0 0 0 0 0 0 0 0 0 0 0 0 0 0 0 0 0 0 0 0 0 0 0 0 0 0
0 0 0 0 0 0 0 0 0 0 0 0 0 0 0 0 0 0 0 0 0 0 0 0 0 0 0 0 0 0 0 0 0 0 0 0 0 0 0 0 0 0 0 0
0 0 0 0 0 0 0 0 0 0 0 0 0 0 0 0 0 0 0 0 0 0 0 0 0 0 0 0 0 0 0 0 0 0 0 0 0 0 0 0 0 0 0 0
0 0 0 0 0 0 0 0 0 0 0 0 0 0 0 0 0 0 0 0 0 0 0 0 0 0 0 0 0 0 0 0 0 0 0 0 0 0 0 0 0 0 0 0
0 0 0 0 0 0 0 0 0 0 0 0 0 0 0 0 0 0 0 0 0 0 0 0 0 0 0 1 0 0 0 0 0 0 0 0 0 0 0 0 0 0 0 0
0 0 0 0 0 0 0 0 0 0 0 0 0 0 0 0 0 0 0 0 0 0 0 0 0 1 1 1 1 0 0 0 0 0 0 0 0 0 0 0 0 0 0 0
0 0 0 0 0 0 0 0 0 0 0 0 0 0 0 0 0 0 0 0 0 0 0 0 1 1 1 1 1 1 0 0 0 0 0 0 0 0 0 0 0 0 0 0
0 0 0 0 0 0 0 0 0 0 0 0 0 0 0 0 0 0 0 0 0 0 0 0 0 1 1 1 1 1 0 0 0 0 0 0 0 0 0 0 0 0 0 0
0 0 0 0 0 0 0 0 0 0 0 0 0 0 0 0 0 0 0 0 0 0 0 0 0 1 1 1 1 1 0 0 0 0 0 0 0 0 0 0 0 0 0 0
0 0 0 0 0 0 0 0 0 0 0 0 0 0 0 0 0 0 0 0 0 0 0 0 0 1 1 1 1 1 0 0 0 0 0 0 0 0 0 0 0 0 0 0
0 0 0 0 0 0 0 0 0 0 0 0 0 0 0 0 0 0 0 0 0 0 0 0 1 1 1 1 1 0 0 0 0 0 0 0 0 0 0 0 0 0 0 0
0 0 0 0 0 0 0 0 0 0 0 0 0 0 0 0 0 0 0 0 0 0 0 1 1 1 1 1 0 0 0 0 0 0 0 0 0 0 0 0 0 0 0 0
0 0 0 0 0 0 0 0 0 0 0 0 0 0 0 0 0 0 0 0 0 0 0 1 1 1 1 1 0 0 0 0 0 0 0 0 0 0 0 0 0 0 0 0
0 0 0 0 0 0 0 0 0 0 0 0 0 0 0 0 0 0 0 0 0 0 0 1 1 1 1 0 0 0 1 1 0 0 0 0 0 0 0 0 0 0 0 0
0 0 0 0 0 0 0 0 0 0 0 0 0 0 0 0 0 0 0 0 0 0 0 0 0 0 0 0 0 0 1 1 0 0 0 0 0 0 0 0 0 0 0 0
0 0 0 0 0 0 0 0 0 0 0 0 0 0 0 0 0 0 0 0 0 0 0 0 0 0 0 0 0 0 0 0 0 0 0 0 0 0 0 0 0 0 0 0
0 0 0 0 0 0 0 0 0 0 0 0 0 0 0 0 0 0 0 0 0 0 0 0 0 0 0 0 0 0 0 0 0 0 0 0 0 0 0 0 0 0 0 0
0 0 0 0 0 0 0 0 0 0 0 0 0 0 0 0 0 0 0 0 0 0 0 0 0 0 0 0 0 0 0 0 0 0 0 0 0 0 0 0 0 0 0 0
0 0 0 0 0 0 0 0 0 0 0 0 0 0 0 0 0 0 0 0 0 0 0 0 0 0 0 0 0 0 0 0 0 0 0 0 0 0 0 0 0 0 0 0
0 0 0 0 0 0 0 0 0 0 0 0 0 0 0 0 0 0 0 0 0 0 0 0 0 0 0 0 0 0 0 0 0 0 0 0 0 0 0 0 0 0 0 0
0 0 0 0 0 0 0 0 0 0 0 0 0 0 0 0 0 0 0 0 0 0 0 0 0 0 0 0 0 0 0 0 0 0 0 0 0 0 0 0 0 0 0 0
0 0 0 0 0 0 0 0 0 0 0 0 0 0 0 0 0 0 0 0 0 0 0 0 0 0 0 0 0 0 0 0 0 0 0 0 0 0 0 0 0 0 0 0
0 0 0 0 0 0 0 0 0 0 0 0 0 0 0 0 0 0 0 0 0 0 0 0 0 0 0 0 0 0 0 0 0 0 0 0 0 0 0 0 0 0 0 0
Wind_Speed
3 2 2 4 4 3 1 1 3 5 4 2 6 9 13 9 4 6 7 7 7 5 1 2 2 2 1 2 4 6 5 4 4 3 3 3 3 3 3 3 4 6 7 7
2 3 4 3 3 2 1 1 3 6 4 2 6 8 9 6 5 6 7 9 7 4 1 1 2 1 1 2 3 3 4 5 4 3 3 2 2 2 2 2 3 5 7 8
5 4 2 3 3 2 2 2 3 6 7 4 3 7 7 5 3 3 4 6 7 7 6 4 2 1 2 2 3 3 4 5 5 5 3 2 2 2 2 3 3 5 7 8
4 5 3 5 5 3 4 4 4 6 5 5 2 5 8 6 7 4 3 6 8 6 5 4 4 3 3 3 3 3 4 5 5 6 5 4 4 3 3 3 3 4 6 7
4 3 3 5 6 5 6 4 3 4 4 4 3 4 9 5 7 7 5 6 7 7 7 6 6 5 3 3 4 4 4 4 5 5 6 5 3 3 2 3 4 4 4 5
6 4 5 6 5 4 3 2 3 3 2 3 5 5 8 5 7 5 4 6 7 7 6 5 4 4 3 2 3 4 4 4 4 5 5 5 6 5 5 5 5 4 4 5
7 6 5 5 3 3 3 3 3 4 3 6 3 3 10 7 5 6 6 8 7 7 7 7 7 6 5 5 4 4 4 3 4 5 5 6 6 6 7 6 6 6 5 5
4 8 4 2 7 7 6 9 7 5 4 5 3 5 9 6 5 3 4 5 6 7 7 8 8 7 7 6 5 5 4 4 4 5 5 5 5 4 4 5 6 6 5 6
2 6 6 5 5 5 4 6 7 6 3 2 6 6 9 4 2 1 3 5 7 9 9 9 7 7 7 7 7 6 6 5 5 5 5 5 5 5 5 5 5 4 4 5
4 5 8 7 2 2 3 5 5 6 5 4 5 4 5 6 5 3 4 6 8 8 7 7 6 7 7 7 6 5 6 6 5 5 5 4 5 5 5 5 5 5 5 5
3 3 7 6 1 1 1 2 4 4 4 5 3 7 7 6 5 6 7 6 7 8 8 7 6 6 6 6 6 6 6 5 5 5 5 5 5 5 5 5 6 6 5 6
3 3 3 7 5 2 2 3 5 4 4 4 4 9 6 4 5 5 6 6 7 8 7 6 6 5 6 7 6 7 6 6 6 5 5 5 5 5 6 6 6 5 5 5
2 2 3 8 6 4 1 1 2 3 3 4 4 9 5 4 4 4 6 7 7 7 7 6 7 7 7 7 7 7 6 7 6 5 6 5 5 6 7 7 6 5 5 5
3 3 5 6 6 3 3 2 4 5 4 5 8 10 9 10 10 8 7 7 7 7 7 7 8 8 7 7 7 7 7 6 5 5 6 6 7 8 7 7 6 6 5 5
2 2 4 7 8 5 6 7 6 8 8 8 9 10 12 11 11 9 8 7 7 8 6 7 8 8 7 6 6 6 6 5 5 5 6 7 6 6 6 6 6 6 6 6
1 2 2 5 6 5 7 10 8 8 7 8 9 13 14 13 10 9 10 9 9 9 7 6 6 7 7 7 6 6 6 5 5 6 6 5 5 5 6 6 6 6 6 5
3 3 2 5 5 5 7 7 5 4 5 5 8 13 13 11 11 11 10 8 9 7 4 5 6 6 5 6 6 7 7 5 6 6 6 5 6 6 6 5 6 6 6 5
5 4 3 3 2 5 6 3 2 4 5 3 8 14 15 13 11 8 6 6 6 3 3 4 4 4 3 2 3 4 4 5 6 6 6 6 6 6 6 5 6 6 5 5
6 6 4 4 3 6 5 4 2 3 3 8 16 19 18 9 4 4 2 1 2 3 5 5 5 5 5 4 2 2 2 3 4 5 6 5 6 6 6 7 7 5 5 5
2 2 3 3 4 3 3 10 9 2 4 14 20 20 17 8 4 5 3 4 7 8 7 6 6 6 6 5 4 5 2 1 2 3 4 4 5 7 7 7 5 4 4 5
4 1 2 3 3 1 5 13 7 7 8 17 16 17 13 6 5 3 3 4 6 7 6 6 7 6 4 3 5 6 4 3 2 2 2 2 3 5 5 4 4 4 4 4
5 4 3 1 2 1 9 9 7 4 7 10 13 14 14 10 4 1 3 5 6 6 6 6 6 5 3 3 5 5 3 2 2 3 3 3 1 1 3 4 4 4 5 4
4 4 5 4 3 4 7 7 4 4 8 10 13 15 14 10 4 1 3 4 4 5 5 4 5 4 2 2 2 3 0 2 3 4 4 4 4 3 1 3 4 4 4 3
4 3 3 6 6 12 13 6 6 8 10 12 12 12 12 11 5 2 5 4 4 4 4 4 5 4 2 1 1 1 1 1 2 3 3 4 4 4 4 2 2 3 3 3
5 5 5 7 10 10 6 7 11 13 13 14 14 11 11 11 6 4 6 6 5 4 4 4 5 4 3 2 3 2 2 2 1 2 2 3 3 3 4 4 3 2 1 2
3 3 4 6 8 8 14 13 12 13 13 14 16 18 16 10 7 5 6 6 6 5 5 4 4 3 2 2 2 2 3 3 2 1 1 2 2 2 3 3 4 7 5 4
Wind_Direction
3 55 214 210 190 192 188 215 273 271 280 297 261 267 277 290 255 227 211 210 213 211 262 7 27 34 81 158 179 188 184 155 140 139 155 172 194 192 193 198 191 182 178 181
16 266 243 226 208 201 200 281 289 292 299 249 267 274 276 278 250 226 212 206 199 201 244 327 16 49 119 157 162 156 149 133 143 137 133 151 156 170 168 169 188 191 187 185
220 258 269 242 242 235 232 213 258 280 313 334 309 300 298 292 290 277 224 189 180 192 202 214 222 205 176 185 183 166 150 141 142 137 116 99 90 93 131 172 192 199 192 187
246 262 256 253 247 223 265 251 272 293 313 295 325 288 279 277 299 277 208 175 181 193 198 204 215 219 210 199 179 171 163 158 155 150 153 161 168 180 187 176 183 190 190 188
252 237 219 239 241 219 242 281 295 281 256 268 285 261 281 296 279 263 210 190 188 195 197 203 213 222 216 184 173 175 173 171 160 159 160 159 165 171 153 148 157 164 170 171
244 228 208 221 248 235 250 34 43 44 76 274 244 220 281 256 244 268 212 195 191 196 201 210 216 213 215 189 172 168 173 177 166 168 171 176 179 173 162 161 160 155 149 143
314 291 237 201 254 276 151 116 356 341 0 257 268 213 252 260 262 241 215 201 194 195 198 207 209 206 206 203 196 182 182 189 176 178 186 193 194 185 181 173 170 163 158 150
324 306 291 210 206 224 202 169 182 216 229 280 299 239 258 270 291 243 197 185 189 202 207 210 210 203 201 204 203 196 199 204 187 188 196 199 196 187 185 177 171 172 168 159
220 276 297 298 248 189 183 201 186 155 175 261 281 285 300 289 311 111 151 173 201 213 215 214 207 199 199 203 205 201 204 212 204 197 193 194 194 189 184 176 171 169 168 163
185 256 288 302 16 68 169 151 110 137 172 233 274 278 259 271 261 257 229 221 227 229 230 225 208 201 200 203 203 198 203 212 212 198 194 190 191 192 182 175 181 180 178 171
172 201 303 337 352 275 101 113 113 121 155 163 246 268 234 245 260 257 259 258 251 245 238 230 218 204 196 192 193 199 205 208 208 203 200 193 189 185 181 187 194 191 187 184
162 136 283 280 270 237 212 189 153 159 211 186 194 261 266 256 266 256 265 266 256 251 242 227 212 196 189 192 195 198 201 205 207 198 198 202 189 179 184 194 197 194 196 196
157 119 353 330 343 356 36 120 135 121 133 178 201 263 287 303 300 271 266 272 269 258 246 221 198 196 198 197 196 198 201 208 204 189 195 200 193 190 196 198 192 189 191 192
144 175 187 222 252 282 293 217 167 151 178 219 227 252 285 293 291 286 272 268 274 268 247 216 202 201 197 195 196 199 205 204 199 192 195 201 202 201 201 195 188 189 187 188
99 243 253 259 269 260 251 247 206 202 206 212 240 247 257 256 257 262 266 269 276 275 251 216 201 195 190 192 200 204 208 201 194 196 204 211 207 199 192 187 186 184 186 193
28 274 304 293 292 290 272 265 246 231 230 239 261 270 261 261 262 265 265 265 267 267 251 221 193 181 186 194 201 207 212 201 190 206 216 208 194 192 191 187 177 175 181 185
238 223 263 279 311 338 284 262 244 244 239 234 269 280 290 283 266 255 256 256 256 263 245 199 181 179 182 189 197 213 217 192 193 214 220 203 194 197 198 185 177 183 185 181
203 184 201 256 322 253 257 293 267 278 280 316 305 306 304 278 267 259 252 248 256 234 171 154 140 125 119 151 195 217 215 202 207 216 222 213 202 205 200 193 196 192 181 182
199 178 185 184 222 274 327 351 340 317 297 27 349 336 332 315 312 313 303 212 167 130 114 102 101 101 89 72 78 135 202 221 225 232 233 227 215 213 205 206 207 193 180 182
85 143 174 176 190 231 336 313 303 208 314 358 348 337 332 329 342 303 12 79 96 98 98 100 95 86 75 58 73 84 75 73 270 266 256 237 222 221 220 216 200 183 180 180
359 5 215 205 214 280 341 322 9 58 324 327 331 330 328 301 265 292 79 88 103 101 96 92 86 81 78 78 83 78 67 43 338 320 303 264 231 225 221 202 176 169 167 162
341 323 301 246 193 93 5 2 21 332 307 315 322 333 331 316 315 66 98 113 112 103 95 92 94 90 72 73 90 86 61 10 19 35 34 19 360 235 188 174 167 160 158 159
358 360 328 319 307 354 346 322 322 342 322 322 325 329 334 335 338 94 128 133 122 116 113 108 116 110 79 45 99 120 340 2 25 35 31 25 31 35 98 157 154 144 151 151
304 346 313 300 298 316 312 309 334 335 323 316 315 317 334 332 311 197 169 166 150 136 135 130 127 133 167 227 243 226 262 22 31 24 23 28 40 44 52 76 126 144 157 150
274 298 285 272 286 299 298 325 325 322 321 321 322 324 330 328 306 214 195 184 170 156 152 148 153 171 200 224 236 232 198 145 79 23 32 44 51 61 64 63 58 84 112 150
262 272 285 282 295 296 297 308 315 312 317 322 323 325 329 325 298 226 198 187 170 164 159 161 178 195 215 226 239 218 177 157 144 97 42 48 62 71 82 89 77 57 59 70